GFSMA_sfc_rhum_231.txt.gz
RH
86 85 88 96 91 90 83 82 79 91 91 91 95 91 92 96 93 96 96 75 75 73 69 69 68 71 74 73 74 77 72 73 78 77 73 73 76 79 80 79 79 76 77
95 86 85 85 89 91 88 89 94 94 96 91 92 93 95 95 93 91 94 89 78 74 72 69 71 69 69 75 74 72 74 73 77 80 82 80 80 83 81 79 76 75 78
94 94 92 86 82 93 89 93 88 95 96 95 95 91 93 92 93 95 94 96 86 78 73 72 76 76 75 68 71 74 78 81 84 82 84 83 83 84 84 81 81 82 83
92 92 90 90 86 90 94 87 94 94 94 94 95 95 88 94 94 95 90 96 93 75 76 77 78 79 75 70 70 74 81 86 86 86 86 85 84 86 87 86 85 86 87
89 94 92 90 87 89 94 93 91 90 92 94 93 95 95 88 96 86 91 92 89 79 78 81 81 81 73 72 72 78 81 86 87 87 88 86 88 88 89 88 88 87 91
86 96 94 86 92 94 96 89 90 92 92 95 88 94 93 92 89 95 90 86 81 82 86 73 81 80 82 76 77 79 81 84 87 88 89 88 90 90 90 89 90 91 92
92 96 94 88 87 89 93 87 92 91 97 98 95 94 91 89 92 92 81 86 82 76 84 90 77 80 82 83 80 81 82 83 85 87 89 90 91 90 88 89 91 91 91
94 89 94 94 88 92 90 90 91 96 94 94 98 96 94 89 92 84 90 76 87 80 82 70 76 80 81 84 83 82 82 83 85 85 88 90 90 91 90 92 94 92 91
92 93 89 96 94 93 93 92 93 91 93 94 97 96 96 93 94 94 87 87 85 90 73 70 72 72 73 83 82 84 84 86 85 86 87 89 90 90 89 90 93 92 92
93 90 89 89 95 95 95 93 89 90 92 93 98 95 98 94 95 94 95 90 87 73 71 80 71 67 69 79 77 82 84 88 88 86 86 87 88 90 90 91 92 93 92
94 90 93 95 95 97 95 94 92 90 95 94 96 97 97 97 97 96 94 93 89 94 85 92 67 66 61 71 74 76 82 84 88 87 86 86 87 89 88 89 89 90 90
97 96 90 93 96 97 95 96 94 91 91 92 98 98 97 97 98 98 99 93 92 83 86 95 96 83 72 70 67 73 81 82 87 87 86 87 88 88 86 84 86 86 88
98 98 96 96 94 95 93 94 94 90 92 92 91 96 96 97 97 97 94 93 93 96 93 94 95 96 73 83 69 75 80 83 84 88 88 86 86 87 87 87 86 86 85
88 90 96 94 93 93 94 94 96 90 92 95 92 93 96 97 96 96 95 96 98 97 98 90 97 96 96 94 90 89 78 85 86 88 89 88 87 88 88 88 88 87 87
82 87 91 94 93 92 93 93 95 90 90 91 91 92 89 97 94 95 82 97 95 94 97 94 97 93 95 98 95 93 94 86 87 90 91 92 91 91 91 91 91 92 92
87 89 92 91 90 91 89 91 90 90 91 90 82 85 92 90 90 96 95 80 85 89 93 97 94 96 96 90 90 88 78 88 93 92 94 93 92 92 92 92 92 92 92
84 86 89 89 91 89 89 94 92 87 91 90 87 86 86 80 81 81 81 85 90 93 90 82 97 96 94 90 90 91 84 90 94 94 94 93 92 92 93 92 92 92 93
86 85 87 88 90 90 90 90 92 79 85 88 87 91 87 78 87 82 86 89 86 84 88 80 94 98 96 94 90 93 85 86 90 87 90 90 92 92 92 93 93 94 94
86 85 87 89 90 90 92 92 92 90 88 88 89 87 81 86 89 88 91 85 88 91 93 96 91 94 87 94 96 94 93 67 67 77 92 92 91 91 90 91 93 95 96
84 79 83 87 89 91 91 93 92 92 92 89 90 91 90 86 88 91 88 91 84 92 94 96 96 85 94 96 95 86 96 97 79 69 87 95 93 92 93 95 94 95 96
85 87 87 86 85 80 75 90 91 91 93 93 93 92 86 86 88 89 85 89 96 97 97 97 97 94 91 96 96 89 97 96 93 93 98 99 99 99 98 96 90 92 94
86 86 85 87 87 70 82 76 79 84 86 92 95 94 93 92 90 90 89 90 91 96 98 96 76 97 91 86 94 94 96 94 89 96 98 98 98 97 96 98 95 95 96
91 92 91 90 89 89 82 85 83 84 86 87 87 86 80 60 85 91 92 91 93 91 91 82 93 82 89 93 95 91 91 98 97 94 96 97 98 89 90 94 95 93 92
95 95 94 92 94 86 91 87 86 91 92 90 88 88 89 85 84 85 89 93 95 93 95 96 96 85 82 75 96 94 90 91 95 96 96 94 98 85 94 96 96 95 89
94 94 92 91 93 90 88 86 88 89 91 91 86 86 87 87 87 85 86 81 79 92 83 90 94 95 94 90 92 98 89 98 81 87 93 92 82 91 96 89 95 95 92
90 87 86 91 91 91 89 91 93 92 94 91 88 84 85 86 93 91 90 94 90 79 86 90 94 95 97 94 93 96 96 97 88 94 75 90 88 94 96 98 86 92 97

GFSMA_sfc_rhum_234.txt.gz
RH
87 87 92 93 96 95 91 93 89 94 94 93 94 93 89 93 95 98 96 74 73 72 73 65 71 72 75 76 76 74 74 77 79 78 74 73 74 75 75 77 79 74 75
96 90 84 83 93 94 91 92 96 95 97 95 95 95 92 97 95 94 97 94 74 76 76 69 69 70 72 73 75 77 72 74 79 78 78 79 79 78 78 80 78 75 74
93 94 93 92 85 92 94 96 93 98 96 95 94 96 95 96 96 94 95 96 92 73 71 72 75 75 73 72 73 73 78 79 77 81 84 83 81 82 82 82 79 78 82
92 97 97 93 90 95 97 95 97 96 96 98 98 98 95 97 96 96 97 97 95 79 75 76 78 78 75 70 72 75 77 82 83 85 85 84 82 84 85 86 83 86 86
93 97 97 94 91 90 94 96 96 96 95 96 94 96 97 99 98 90 96 94 92 84 80 79 80 80 74 72 71 74 78 83 87 88 88 87 87 86 88 90 88 87 87
93 96 97 94 92 96 97 97 94 94 95 96 92 93 94 98 99 98 96 92 94 91 91 81 82 80 82 76 76 78 79 81 87 88 89 90 89 88 89 91 90 91 92
92 96 98 94 90 92 93 93 94 93 94 97 97 96 94 92 97 98 97 96 96 87 94 96 83 83 82 83 79 80 79 79 83 86 89 90 91 91 92 93 92 90 90
94 96 96 97 93 92 91 94 94 96 91 94 97 97 95 90 97 94 97 90 94 90 93 91 80 82 83 84 81 82 82 82 82 84 88 90 91 92 92 92 91 90 91
95 97 95 97 96 97 97 94 95 96 94 98 96 96 95 92 96 96 95 94 92 94 82 82 89 89 84 86 83 83 84 86 85 84 86 88 91 92 92 92 93 93 93
96 96 93 95 97 98 98 97 87 98 95 96 98 96 96 94 93 93 96 96 88 86 84 88 81 83 82 85 84 85 84 88 86 85 86 87 89 91 91 91 91 92 93
94 94 94 94 95 96 97 96 95 95 98 97 97 98 97 97 97 95 91 91 92 95 88 94 79 78 72 78 84 83 88 89 88 86 87 87 88 89 89 90 88 91 92
98 97 95 98 97 98 97 97 96 96 95 96 97 97 97 98 98 97 98 95 93 86 92 96 95 85 73 73 77 80 84 88 89 88 87 87 87 87 87 86 87 87 88
99 99 98 98 98 97 97 97 97 96 94 96 95 98 98 97 98 97 96 92 93 94 92 96 96 96 80 74 72 78 82 87 87 90 91 90 88 88 87 86 86 86 85
94 96 98 97 96 96 97 97 98 97 91 97 94 96 97 97 98 98 95 94 96 97 97 90 97 98 97 96 91 88 84 88 89 90 91 92 91 90 90 89 88 87 86
90 92 95 98 97 97 97 97 99 97 94 94 96 95 97 97 97 97 90 96 95 94 95 92 95 92 97 97 94 94 94 90 91 91 90 91 92 92 91 90 90 90 90
93 94 94 94 95 96 95 97 97 96 96 96 93 92 94 96 97 98 98 94 96 94 97 96 92 94 94 90 93 94 90 91 90 93 93 93 92 91 92 91 92 92 92
88 91 94 95 95 94 95 96 95 92 94 95 94 92 89 90 90 98 98 97 98 98 97 95 96 95 93 94 85 93 90 84 94 95 95 94 94 93 93 93 93 94 94
89 88 89 91 92 93 93 95 96 88 93 94 92 94 95 92 93 94 96 93 95 94 96 94 90 96 97 93 94 90 92 78 93 88 94 94 94 94 94 94 94 95 95
88 88 92 91 91 91 92 93 94 94 93 92 91 92 90 89 92 94 94 94 96 96 98 98 95 96 96 96 94 96 94 79 69 73 84 94 94 94 94 94 95 96 97
91 93 93 92 92 92 93 94 95 96 96 94 94 95 94 94 94 94 97 94 90 96 97 98 98 96 97 96 97 97 93 95 90 64 72 92 92 94 93 94 95 95 97
86 89 87 88 88 83 75 87 90 93 94 94 94 95 94 93 92 94 97 91 96 98 98 98 98 98 97 97 96 93 97 95 92 94 98 98 98 98 98 96 91 93 94
95 95 95 94 93 76 92 89 86 85 86 87 91 92 92 91 90 95 97 94 94 96 96 98 86 98 95 94 96 97 97 97 92 96 97 97 99 98 97 99 96 97 97
95 95 96 96 96 94 90 89 85 92 93 94 93 92 87 68 84 88 88 92 94 95 94 95 97 95 94 97 97 96 97 97 97 94 96 97 98 96 88 91 96 96 97
94 95 95 93 94 87 91 89 90 91 93 93 94 94 95 94 92 90 93 94 94 95 96 97 98 93 92 86 97 96 97 97 97 97 97 94 97 92 93 91 88 91 95
93 93 93 92 93 94 92 93 92 93 92 94 92 93 93 93 93 89 91 93 93 90 77 92 96 97 96 96 96 99 99 100 98 92 96 95 75 92 95 75 92 96 95
89 89 91 93 92 93 91 89 94 96 98 96 96 95 93 92 94 95 96 96 97 94 91 90 90 91 97 95 96 98 98 99 99 92 80 94 84 97 97 95 81 94 99

GFSMA_sfc_rhum_237.txt.gz
RH
88 86 93 94 89 97 96 95 95 96 96 93 97 96 96 94 95 95 97 72 70 70 74 74 69 73 74 77 76 76 76 74 77 76 70 72 76 76 75 76 78 74 75
95 88 88 85 90 95 92 94 96 98 97 98 97 97 96 96 96 97 96 93 76 73 75 75 69 71 74 73 74 75 74 75 79 79 76 77 76 76 76 78 80 77 74
92 91 88 90 91 93 94 96 95 96 97 93 91 96 97 96 98 96 97 94 90 73 74 76 75 75 73 72 71 77 74 77 79 80 80 78 77 77 79 81 82 79 77
91 95 98 97 92 95 96 94 98 98 96 97 97 98 98 99 98 97 96 97 96 78 75 74 76 75 73 72 70 72 78 81 81 82 84 81 77 78 82 84 83 82 83
92 97 98 97 94 93 95 97 98 96 96 97 96 97 98 99 99 92 95 96 95 88 86 76 79 79 74 72 70 75 77 81 84 84 86 86 86 84 86 89 89 88 87
97 99 98 96 93 95 97 97 94 96 95 97 93 96 97 98 99 98 98 93 95 92 93 87 82 78 81 75 74 76 76 80 83 85 89 90 90 90 88 90 92 91 89
98 98 98 97 96 95 94 90 96 94 94 96 97 96 96 96 99 99 98 99 98 91 97 96 87 86 82 82 79 79 79 78 81 83 89 90 91 92 90 92 93 93 92
98 98 97 98 95 95 93 92 95 96 92 94 96 97 95 93 97 96 98 95 98 95 94 94 86 88 89 84 82 83 81 81 81 81 85 90 91 92 92 93 95 94 92
97 95 96 98 97 98 97 96 95 96 94 96 96 95 95 92 96 97 97 98 97 98 89 92 92 90 89 88 85 82 83 85 83 83 84 86 90 91 92 93 94 93 92
96 95 97 98 97 98 98 98 92 97 97 96 98 98 96 93 94 96 96 97 96 94 95 97 88 85 84 87 86 85 84 87 87 85 84 85 87 90 91 92 92 93 93
97 97 97 98 98 98 98 98 96 97 98 98 97 98 97 98 97 95 91 93 95 97 92 95 82 85 83 81 84 84 89 88 88 88 85 86 85 88 88 90 90 91 92
98 97 96 98 97 98 97 97 97 96 97 98 98 98 98 96 96 97 96 94 95 83 93 97 96 92 85 84 79 84 87 89 89 90 89 87 86 86 87 86 88 88 87
99 98 98 99 99 98 98 98 98 98 97 99 97 98 98 97 98 97 96 95 95 94 94 94 96 97 80 82 78 82 84 88 91 92 92 91 90 88 88 87 87 86 85
95 96 98 98 98 98 98 98 99 99 97 97 98 98 98 98 98 98 96 94 93 96 96 91 95 97 97 96 89 83 81 90 90 92 94 93 92 90 89 89 88 88 86
98 96 97 98 98 98 98 98 99 98 98 97 96 96 98 98 98 98 95 96 96 95 96 93 96 94 97 97 93 93 95 87 91 90 92 92 91 91 91 91 91 91 91
96 95 96 97 98 98 98 98 98 98 98 98 96 96 96 97 97 98 99 98 96 93 97 97 94 94 95 96 94 93 96 92 93 93 92 92 92 92 92 92 92 93 93
91 95 95 96 96 96 97 98 98 97 98 97 96 97 96 94 94 98 98 99 99 98 99 97 97 94 93 95 96 96 93 92 94 93 91 94 95 94 93 93 93 94 94
95 94 93 94 95 96 96 97 97 92 96 96 95 96 96 94 96 96 98 97 98 98 98 97 94 95 96 93 93 92 93 77 90 87 92 94 95 96 95 95 95 95 96
92 92 93 95 94 93 93 95 96 96 96 96 94 94 92 94 96 97 96 97 98 97 98 99 98 97 96 97 94 95 94 89 76 78 87 91 93 95 95 96 96 97 98
89 90 91 92 92 91 91 92 96 96 97 96 96 96 96 96 96 96 97 97 96 98 98 99 99 98 98 95 98 98 95 97 91 68 75 80 87 91 94 96 96 96 97
94 95 95 94 93 87 82 92 91 90 93 94 94 95 95 95 96 96 98 97 97 98 99 99 99 98 98 98 97 95 98 96 90 97 97 97 98 98 97 97 93 95 97
96 96 97 97 97 76 90 89 88 93 92 92 93 92 91 88 86 90 94 97 97 97 98 99 99 99 96 97 97 98 98 98 93 95 97 97 99 98 97 98 94 95 96
94 96 96 94 93 93 93 90 85 91 91 94 94 96 91 76 92 94 93 93 93 95 97 97 98 98 98 97 96 97 98 98 97 95 96 95 98 95 89 92 96 97 97
93 93 93 92 93 91 94 94 88 93 94 94 94 95 96 96 97 95 94 94 93 93 93 97 99 97 98 97 98 96 96 97 98 98 98 98 96 96 94 90 90 91 94
92 93 94 93 96 97 90 93 94 97 97 96 97 96 96 98 94 91 94 96 96 93 79 85 89 96 98 98 99 99 99 99 89 90 98 99 92 92 95 78 87 93 90
94 97 97 97 92 95 86 86 90 98 97 98 94 94 93 93 93 90 90 88 89 78 89 93 92 93 93 89 91 99 98 98 98 88 91 99 96 97 98 96 78 84 97

GFSMA_sfc_rhum_240.txt.gz
RH
86 83 87 91 89 93 89 91 93 95 93 91 93 93 90 91 92 90 93 72 70 65 69 67 71 73 76 76 75 76 75 76 79 74 70 78 80 76 77 78 74 74 76
94 86 85 84 90 89 86 94 97 96 97 95 93 94 90 93 91 93 92 88 70 71 68 70 73 72 74 76 75 76 76 74 78 76 74 77 78 77 76 77 80 76 75
92 89 88 86 84 93 88 94 95 96 95 93 94 95 93 91 92 92 94 85 84 77 70 69 70 74 74 72 75 73 76 79 79 80 81 78 78 78 77 79 81 80 77
95 93 91 89 89 93 94 88 96 94 95 95 94 95 92 94 90 92 90 91 87 71 77 74 74 76 73 73 72 75 78 80 82 84 84 80 77 78 80 83 84 84 80
95 92 92 90 90 90 92 94 96 94 96 94 93 95 95 97 95 88 91 87 86 79 74 76 80 79 75 71 72 75 77 82 82 84 85 86 83 82 84 87 88 88 85
96 97 97 92 90 88 93 96 94 94 94 95 88 93 95 95 97 96 92 85 89 84 83 80 76 74 80 72 76 75 76 80 83 83 84 88 89 89 87 89 91 92 90
96 98 97 93 91 89 91 88 94 92 91 92 96 93 92 92 95 96 92 93 92 81 84 90 80 74 72 82 79 78 77 77 80 82 84 88 90 91 92 91 91 92 93
98 98 96 94 92 89 89 90 92 96 88 91 95 97 93 88 93 93 96 90 94 86 87 85 79 80 81 76 77 81 79 80 80 80 84 85 90 91 92 93 92 93 93
96 96 95 96 94 97 90 92 92 94 94 95 92 92 93 90 94 94 93 95 93 94 82 84 86 84 83 81 79 79 84 85 83 82 82 85 87 91 91 92 93 93 93
97 96 94 96 96 94 98 95 89 95 96 95 96 96 94 89 90 92 94 93 92 87 86 90 80 81 81 85 81 81 84 87 86 85 84 84 85 87 90 90 92 93 93
95 93 93 95 97 92 94 94 95 96 97 98 97 97 95 96 95 93 90 90 84 92 92 91 80 80 80 79 82 82 89 88 87 87 87 85 84 85 86 88 89 90 92
96 95 93 95 96 94 93 90 95 95 95 96 98 97 97 94 94 95 96 87 90 78 84 93 92 83 80 80 78 83 87 89 89 88 89 88 86 85 84 84 85 87 89
96 96 96 97 94 94 93 93 95 94 94 97 96 98 98 96 95 94 95 89 90 88 87 86 90 91 77 80 86 83 85 89 90 91 90 91 90 88 86 86 85 85 86
95 96 95 93 93 94 92 95 94 92 92 96 94 97 97 97 97 95 93 92 92 94 92 84 90 91 91 89 84 88 77 91 92 93 93 92 92 92 90 89 88 87 86
96 94 94 95 95 95 95 96 95 94 93 91 92 94 97 97 91 94 93 92 94 96 93 91 94 88 94 94 87 81 86 87 91 93 94 95 95 94 93 92 91 90 89
94 96 97 94 94 95 94 96 95 95 95 91 88 91 94 96 95 96 97 91 88 85 95 93 81 89 85 87 88 85 83 90 93 94 95 94 94 93 93 93 93 92 92
93 93 94 95 94 94 94 96 96 94 96 95 91 92 91 91 86 96 97 97 96 96 92 93 92 87 86 87 86 87 81 78 83 94 92 94 95 94 94 93 93 94 94
94 95 94 93 95 96 94 94 94 91 94 93 90 93 92 89 92 94 95 93 96 94 94 93 84 92 91 84 85 85 81 66 75 86 93 94 92 92 91 94 95 95 96
92 92 93 94 93 92 93 94 95 95 96 94 92 91 90 89 92 90 94 92 95 90 95 97 91 93 88 84 86 90 87 80 70 78 90 92 92 91 92 95 96 97 98
89 87 89 92 92 91 90 90 91 92 93 92 94 93 92 93 92 93 94 92 87 92 96 98 96 86 91 91 93 92 86 86 78 61 70 77 84 86 91 92 93 95 98
92 92 91 91 90 82 75 90 89 88 88 86 85 86 86 88 95 95 95 91 96 97 98 98 99 92 90 95 94 87 92 88 79 83 89 89 90 90 88 93 90 95 96
92 93 92 93 90 73 92 90 83 84 88 89 91 89 87 86 86 91 92 96 97 94 94 96 96 98 91 89 92 93 94 95 88 88 92 89 89 85 76 89 92 95 96
90 92 90 88 90 90 94 92 86 80 83 87 88 87 82 70 89 88 90 93 91 95 97 94 96 92 92 91 91 94 94 96 94 82 92 89 91 79 69 72 94 94 95
90 90 90 91 93 86 94 93 88 86 87 88 90 91 91 91 88 87 89 87 86 84 84 84 92 87 88 88 96 96 95 95 92 91 94 93 88 80 74 71 89 90 92
90 91 91 94 92 89 88 90 90 88 85 87 85 88 89 89 89 86 83 83 83 78 73 86 89 91 93 94 95 94 93 98 86 74 88 93 74 75 77 69 70 90 91
94 92 95 91 85 86 87 87 83 74 84 78 84 83 89 91 94 89 83 80 82 77 77 83 83 82 88 81 91 93 92 86 87 80 74 89 73 89 85 80 66 71 85

GFSMA_sfc_rhum_246.txt.gz
RH
48 46 54 57 56 46 44 45 64 70 75 60 60 57 54 51 56 41 50 70 75 69 62 58 61 68 70 71 74 75 71 75 75 70 74 75 76 74 76 72 72 74 75
70 68 73 68 47 46 43 45 77 64 67 84 62 55 71 60 63 62 44 54 69 67 68 70 61 66 69 73 73 74 70 76 76 72 72 75 77 75 76 75 72 73 74
70 76 81 69 45 49 51 49 62 70 91 66 58 53 67 64 71 70 67 42 53 72 68 71 70 73 72 73 74 75 76 78 78 76 75 76 80 77 78 77 79 78 75
69 86 77 59 46 48 45 47 72 83 90 83 64 60 58 69 65 67 68 63 47 43 66 72 74 74 71 72 74 75 76 79 80 80 81 78 76 79 79 78 78 80 82
69 90 71 54 56 51 52 48 68 75 71 82 69 59 57 57 63 66 57 62 55 50 47 68 77 78 71 72 73 74 76 80 83 82 83 83 81 81 82 83 83 86 86
69 69 73 62 56 52 50 48 68 57 72 63 50 60 65 54 60 65 62 59 62 60 49 59 54 52 78 71 75 75 74 78 81 83 83 85 86 86 85 85 86 87 89
66 70 62 72 61 62 56 60 70 76 48 47 56 58 65 61 64 62 54 70 56 53 48 50 59 44 50 80 79 79 74 76 80 82 84 84 87 88 88 87 87 87 87
72 76 73 89 77 50 63 63 64 81 48 48 80 67 86 81 75 61 57 56 54 52 47 44 48 54 52 51 54 79 81 80 78 81 84 87 88 87 88 90 92 91 90
79 76 73 87 90 66 51 61 62 62 74 53 65 79 71 70 78 71 62 51 54 71 48 46 44 45 48 42 50 60 79 82 81 80 82 86 88 88 88 88 91 91 91
84 77 77 79 78 59 57 57 52 55 63 87 74 67 61 55 88 64 76 67 50 67 47 45 45 45 46 47 53 62 79 83 84 83 83 82 84 87 88 87 88 92 92
69 66 66 71 77 70 60 59 57 65 49 65 60 63 66 68 55 74 77 74 50 46 46 47 41 42 47 46 45 54 78 86 86 84 84 85 84 84 86 87 88 88 90
56 66 64 69 66 75 74 61 63 67 61 54 61 61 72 86 78 81 49 54 47 46 44 46 45 41 42 44 52 70 82 84 87 88 88 86 86 85 84 83 84 87 88
70 70 68 69 84 67 74 73 68 63 65 60 64 66 78 50 47 48 46 46 42 41 43 40 43 42 38 42 43 70 82 89 90 90 90 89 88 87 86 85 84 83 83
86 74 61 64 64 69 67 66 58 59 58 58 64 61 82 68 47 45 48 52 76 81 43 51 38 40 40 41 50 82 56 88 90 93 94 93 91 90 90 89 88 87 86
62 67 65 65 64 69 71 77 64 62 60 62 60 64 61 85 47 43 44 44 46 76 86 57 44 47 42 42 53 47 51 74 91 92 93 94 93 93 92 91 91 91 91
81 79 71 66 67 68 72 77 81 71 66 54 50 64 65 50 51 44 43 42 44 44 43 41 44 46 46 44 53 56 51 73 90 92 93 94 94 94 94 94 93 93 93
79 76 76 71 74 72 72 77 78 71 72 68 61 68 72 64 49 45 48 48 45 45 47 37 36 43 63 62 50 50 49 47 44 86 89 92 94 94 94 94 95 95 94
64 67 70 72 70 73 74 75 74 68 73 74 72 72 66 61 67 65 54 62 61 50 48 63 50 42 59 58 58 61 48 35 36 68 87 90 92 94 95 95 96 96 96
58 51 61 69 69 70 71 72 81 80 79 79 75 76 72 72 82 86 82 77 74 77 77 70 57 65 50 46 55 57 58 53 42 62 84 84 90 92 93 94 95 96 97
59 58 59 60 61 62 60 60 61 63 62 61 72 74 69 72 78 81 82 84 86 90 88 93 92 86 81 83 88 88 82 92 72 41 53 62 67 78 90 92 93 94 96
62 62 60 60 59 50 47 65 59 57 60 57 56 58 59 72 88 88 63 77 79 80 83 82 75 67 58 60 90 82 86 70 83 56 55 58 60 57 52 87 73 90 93
65 64 61 62 59 41 91 86 75 54 58 59 58 56 59 73 73 86 89 87 85 72 70 56 47 48 58 52 42 42 41 42 43 33 40 37 34 36 33 34 70 82 92
68 68 65 62 67 67 91 89 83 47 54 58 61 60 52 43 64 61 76 82 86 89 91 70 69 61 61 58 60 64 63 56 53 42 48 41 35 36 33 33 66 77 88
67 65 64 65 67 70 86 85 82 58 54 57 60 60 62 70 77 75 67 61 59 60 61 54 61 62 62 70 72 68 73 72 58 48 53 52 41 41 35 31 61 84 88
68 66 67 70 71 73 85 85 81 56 53 58 57 60 63 75 90 85 67 66 68 61 63 80 80 80 81 84 79 55 52 48 45 39 36 38 36 36 35 36 34 77 80
66 60 68 71 85 71 92 87 80 48 53 47 56 60 89 78 92 92 72 64 64 58 58 57 56 61 78 68 89 70 55 52 46 43 40 53 42 46 54 46 37 42 60

GFSMA_sfc_rhum_252.txt.gz
RH
80 78 79 69 74 65 57 67 85 84 82 82 82 94 91 83 68 75 78 73 76 75 71 75 72 73 71 73 75 74 71 71 70 74 76 74 76 76 74 72 72 73 74
87 89 79 88 83 71 74 72 85 88 91 86 73 86 88 85 74 75 72 71 80 77 74 70 71 72 73 72 74 74 68 76 73 75 77 78 78 77 76 74 71 71 73
86 91 95 93 91 79 84 86 89 94 91 84 76 79 84 82 80 84 84 75 76 79 73 71 72 74 72 71 72 75 75 79 79 76 80 80 80 80 79 78 74 75 76
81 96 88 93 89 87 71 68 94 97 94 88 76 85 89 87 84 82 75 86 80 58 72 73 74 74 73 70 72 75 79 79 81 82 80 81 82 80 82 80 80 81 81
82 95 95 92 90 85 73 74 91 92 93 85 84 89 89 90 86 78 79 81 64 48 54 71 79 78 68 70 73 75 78 82 83 84 84 82 82 84 85 85 84 83 84
87 90 93 90 88 92 77 84 84 90 90 81 78 97 93 89 90 91 82 80 76 61 54 63 75 76 78 73 76 80 80 82 85 85 86 86 86 84 85 87 88 87 87
88 87 93 92 89 83 84 78 85 85 85 87 89 95 87 89 87 90 72 75 78 68 57 65 70 67 75 79 77 79 80 79 82 84 86 87 88 90 87 88 89 89 88
88 83 88 92 90 92 86 84 84 86 90 80 92 85 92 93 94 89 83 87 74 64 67 61 58 62 64 72 74 80 82 82 81 82 86 88 88 89 90 92 92 91 90
83 88 85 90 91 92 95 88 84 84 92 86 79 92 91 95 95 88 86 82 82 74 70 64 60 60 65 66 70 75 82 86 83 83 84 87 89 88 88 90 91 91 92
81 79 78 87 90 91 92 86 81 82 86 92 77 80 81 90 93 97 90 88 82 75 70 70 63 61 60 68 66 70 79 87 85 84 84 85 87 90 90 89 90 91 91
79 73 82 86 86 93 90 88 80 83 87 85 89 90 87 87 85 94 91 94 92 72 67 69 64 62 61 58 59 65 80 85 86 85 84 84 85 87 88 89 90 91 91
77 84 84 87 88 89 88 89 84 81 82 81 90 86 92 87 89 94 89 90 85 85 70 68 64 62 64 61 57 65 79 84 86 86 85 84 83 84 84 85 88 88 89
91 92 87 91 91 88 84 88 85 81 82 82 79 79 84 87 87 83 93 89 84 83 90 70 68 66 60 65 65 69 83 85 87 88 88 87 87 86 85 85 85 85 85
78 81 84 84 85 82 83 86 92 84 81 86 81 81 81 77 78 80 78 75 85 92 85 76 62 60 66 62 63 72 70 86 86 88 90 90 90 90 89 88 88 87 87
84 91 81 82 80 82 83 85 86 84 88 89 86 86 83 75 71 73 87 75 79 90 82 75 81 73 84 70 66 65 66 87 89 88 90 91 91 91 90 91 90 91 90
78 83 85 83 81 81 84 87 91 86 87 87 75 84 86 73 71 71 75 74 69 74 80 71 69 77 88 84 72 66 64 80 87 90 89 90 91 91 92 92 92 92 92
86 79 80 80 86 86 85 89 89 85 87 87 84 81 85 84 78 77 78 80 75 73 73 77 72 77 82 79 71 74 71 69 73 89 88 88 90 91 92 93 93 94 94
78 83 84 85 85 84 87 88 87 87 85 88 86 86 85 74 86 88 91 89 91 90 85 90 84 81 78 82 82 83 71 49 62 73 86 89 90 92 92 93 94 95 96
70 64 77 82 82 80 83 85 85 84 82 84 85 86 84 86 90 94 88 93 92 85 90 92 87 83 83 80 85 84 83 80 63 72 86 88 90 91 92 93 94 95 96
69 67 67 70 68 71 79 79 78 82 82 83 85 84 82 86 89 91 92 92 93 93 91 94 90 91 91 85 90 92 92 92 81 57 64 80 86 87 89 91 92 92 94
68 68 67 69 65 65 65 80 78 72 71 72 71 74 76 79 82 83 77 90 91 92 95 96 96 94 94 94 92 91 91 85 88 84 86 77 79 81 74 89 84 88 92
74 72 70 68 75 58 88 87 82 75 66 67 69 71 78 82 82 86 83 80 84 86 87 85 84 85 85 82 81 86 82 83 82 74 80 77 73 72 67 68 75 84 88
78 75 71 73 83 78 86 84 81 68 68 73 72 74 65 65 80 78 75 76 84 86 87 90 89 87 88 90 91 90 89 90 89 78 72 69 69 66 62 45 62 77 86
78 79 74 76 81 77 84 84 81 76 71 67 66 70 80 84 84 81 78 75 75 75 80 71 80 81 79 82 84 81 89 89 83 76 77 75 64 64 62 62 68 71 76
80 79 77 76 85 83 83 85 84 76 72 69 74 82 77 83 90 89 82 80 80 76 60 82 76 77 77 83 85 84 82 83 79 76 78 83 75 74 74 69 69 71 75
81 70 75 82 85 84 86 84 83 68 70 69 83 82 87 82 85 85 86 84 84 82 79 76 75 74 82 78 85 86 86 92 86 83 89 76 78 75 84 77 65 70 62

GFSMA_sfc_rhum_255.txt.gz
RH
88 80 88 80 82 76 72 70 90 95 94 92 91 95 84 91 78 81 76 73 77 74 75 74 74 74 72 74 74 74 73 70 74 76 76 76 78 78 78 76 76 77 76
93 92 87 93 90 85 86 82 92 91 91 91 90 91 92 95 90 87 87 72 77 77 75 74 73 73 71 72 74 74 72 74 71 77 79 81 81 80 77 75 74 75 77
92 89 93 95 95 91 86 91 94 92 92 92 86 89 95 92 94 90 94 93 79 79 79 76 75 76 73 72 74 75 72 79 73 78 82 83 82 82 82 81 78 76 77
90 95 93 97 96 96 94 93 97 95 94 96 94 92 91 91 88 91 88 91 94 73 78 78 79 79 75 72 73 76 74 82 83 80 83 81 80 83 84 85 84 84 84
82 96 97 97 95 96 95 90 95 93 95 90 89 95 96 96 93 89 87 88 88 76 77 76 76 78 71 70 72 76 77 81 85 85 83 84 85 86 87 86 86 86 86
81 95 98 97 95 98 95 94 90 94 92 96 89 87 96 98 95 98 86 86 87 62 68 74 79 77 78 73 77 79 77 81 83 86 87 86 86 86 88 90 90 89 88
86 91 97 96 95 94 94 91 90 89 92 96 99 98 96 93 93 97 95 80 88 70 50 61 72 82 80 78 80 82 79 78 82 85 88 89 90 90 89 90 91 90 90
89 89 96 97 98 96 92 91 90 94 96 86 97 93 98 97 95 95 97 91 87 74 71 67 71 75 79 77 80 82 84 83 82 82 86 89 90 90 92 92 90 90 90
90 94 94 96 97 93 97 94 92 95 95 95 93 95 93 94 96 95 94 94 91 83 76 69 69 66 68 78 77 79 82 87 85 84 85 88 90 91 91 92 92 93 93
89 92 91 94 95 97 97 96 90 89 96 96 94 86 83 92 96 95 94 95 91 88 84 82 71 63 66 73 75 77 78 88 87 86 86 87 89 91 91 90 91 92 91
89 87 90 92 94 98 95 93 89 93 95 90 96 96 90 95 92 95 96 97 96 89 95 74 76 70 67 72 70 74 82 85 87 87 86 86 87 89 86 89 90 90 90
94 91 91 93 93 96 94 92 91 92 87 91 92 93 94 94 94 97 96 95 97 94 75 78 69 67 73 71 66 74 81 83 86 86 86 86 86 87 85 84 86 88 89
97 96 95 96 97 95 93 93 92 91 91 88 87 88 88 94 96 98 99 98 98 93 93 94 80 64 63 64 63 72 81 83 87 88 89 88 88 87 86 86 85 85 85
97 90 95 95 95 92 94 94 95 92 88 92 88 91 92 86 83 97 96 97 97 96 94 80 81 84 74 65 64 75 79 85 87 90 91 91 90 89 88 87 87 87 87
93 87 89 89 98 94 93 95 97 92 92 92 93 92 91 88 84 79 93 95 94 97 96 86 88 76 86 76 74 66 71 86 91 90 91 91 91 90 90 90 90 90 91
86 93 88 89 95 96 93 94 94 92 93 94 88 91 92 86 86 80 84 84 90 82 81 77 78 86 87 80 77 76 66 79 92 92 90 92 90 90 90 91 91 92 91
91 88 90 92 86 91 93 94 94 93 92 92 90 90 91 88 84 89 93 86 86 85 80 80 80 82 87 84 78 78 76 82 83 90 90 90 90 90 91 92 92 92 93
89 90 90 91 91 90 91 91 92 91 92 92 91 90 89 84 88 92 94 90 93 93 88 89 89 90 94 88 89 87 76 75 87 76 94 92 91 91 92 93 94 94 95
83 85 83 89 90 91 91 90 90 89 88 88 88 91 90 91 92 95 93 95 95 90 94 95 92 89 91 92 89 89 88 80 69 73 88 86 90 93 92 94 94 95 96
69 72 77 82 80 80 83 85 86 88 86 87 87 86 90 92 93 93 94 95 95 96 95 96 95 95 94 93 93 94 93 94 87 66 73 78 87 90 93 94 93 94 97
76 74 77 76 77 75 79 91 84 84 79 81 79 88 82 83 87 86 82 87 90 96 97 97 97 96 96 94 94 96 96 92 92 94 90 81 82 81 82 90 90 90 93
77 76 80 81 80 70 87 86 85 88 85 75 84 91 87 90 90 86 85 84 84 86 90 95 94 94 91 95 97 98 97 97 95 90 82 76 78 73 69 68 75 88 86
82 82 94 87 88 87 85 84 80 83 88 80 81 87 75 70 82 81 85 83 82 88 84 92 93 93 95 94 93 92 94 96 96 86 90 88 81 81 63 63 74 79 83
88 86 96 89 86 84 84 84 82 90 89 77 85 95 94 91 90 82 86 85 84 85 88 84 93 91 86 84 88 90 92 93 93 87 91 95 84 84 76 72 78 80 75
89 88 88 94 91 88 85 83 79 84 84 85 91 95 93 93 87 87 90 91 91 92 76 83 80 78 79 85 83 87 93 97 97 95 87 95 91 91 85 83 72 82 81
86 91 92 95 89 90 82 83 81 83 93 98 93 91 86 86 84 85 92 96 96 94 91 88 82 82 83 91 90 91 96 97 97 96 93 92 96 92 96 90 83 81 85

GFSMA_sfc_rhum_261.txt.gz
RH
94 91 88 87 90 87 84 85 89 93 96 95 94 95 95 94 89 95 90 74 75 76 74 74 75 76 74 75 74 74 74 73 72 74 78 76 74 78 76 78 76 74 74
97 96 97 96 96 93 89 94 93 96 97 96 94 94 94 94 94 95 93 80 74 72 72 71 77 75 75 73 76 75 75 75 76 76 78 79 78 79 76 79 77 76 79
97 98 98 98 96 95 93 95 95 96 95 93 94 96 97 92 95 96 97 95 77 69 68 72 76 76 74 74 72 74 77 74 78 77 80 80 79 77 78 78 78 79 79
96 97 97 97 96 97 97 98 97 98 97 96 97 99 97 96 95 95 97 96 93 82 71 70 75 78 74 71 74 73 75 76 75 79 80 80 80 76 80 79 78 80 78
94 98 98 95 95 98 98 97 98 96 98 98 96 97 98 98 97 96 97 94 93 94 96 78 82 82 75 69 73 72 75 75 80 81 83 83 82 82 84 86 85 85 86
92 97 97 96 96 99 99 98 96 98 96 96 92 97 99 99 99 99 97 90 94 94 97 95 87 85 81 72 74 75 77 71 81 78 84 87 87 87 88 89 89 89 87
94 96 98 98 98 99 96 96 96 96 98 98 99 99 97 97 99 99 98 98 94 89 95 95 98 97 87 83 78 79 76 72 79 81 86 87 88 90 91 92 92 91 90
97 94 98 98 97 99 97 97 95 98 97 99 98 99 98 98 99 99 99 94 91 78 81 85 91 92 92 94 89 82 83 82 77 76 82 89 90 89 89 91 92 91 91
97 97 97 98 98 98 99 97 96 95 97 99 96 96 99 97 98 99 98 96 95 85 72 72 80 83 89 87 82 82 86 87 84 80 81 85 90 91 92 92 92 92 91
92 96 98 98 99 99 98 96 91 96 96 97 99 99 94 94 95 98 98 99 97 92 81 76 70 73 81 85 81 79 82 90 89 86 83 85 88 90 90 91 92 93 93
95 94 98 98 98 99 97 94 94 97 98 97 97 98 98 98 95 96 98 100 99 96 96 81 75 70 66 70 78 78 83 85 90 89 88 87 87 87 84 86 89 90 91
96 93 94 96 98 98 97 96 96 96 98 97 97 96 97 97 97 96 97 98 98 98 97 89 85 83 78 76 74 79 83 86 86 90 89 88 88 87 84 82 84 85 86
96 95 96 98 99 98 97 98 98 97 96 97 96 99 98 96 96 97 96 98 97 97 98 98 88 80 78 79 76 79 81 86 89 88 90 90 89 89 89 88 87 85 84
97 95 97 96 97 97 97 97 98 98 96 96 94 96 98 98 98 97 96 97 97 97 98 92 98 94 79 78 77 83 79 89 91 92 92 92 91 90 90 89 89 89 89
96 94 96 97 98 98 98 98 99 96 96 96 96 94 97 99 98 99 98 97 94 96 98 91 91 90 80 81 79 72 76 79 89 91 92 93 93 92 92 92 91 91 92
96 95 97 95 96 98 98 98 98 95 96 97 96 95 95 96 96 97 97 98 98 87 92 97 89 90 94 82 86 92 81 82 86 90 92 92 93 93 94 94 94 93 93
96 97 94 98 96 97 97 99 98 96 96 96 95 96 94 93 96 96 97 97 98 97 95 96 98 96 93 96 90 94 87 93 94 93 92 95 96 96 95 95 95 95 94
96 98 94 97 96 96 97 98 97 96 97 96 95 95 96 94 96 96 98 94 94 96 93 89 95 96 93 93 92 91 83 76 93 92 93 95 95 96 95 96 96 96 96
96 97 97 97 98 97 97 96 96 96 97 95 96 96 93 95 97 98 97 97 97 98 97 96 90 97 97 97 94 93 91 92 91 92 96 97 98 97 97 98 98 98 98
96 96 97 98 98 96 95 97 97 98 98 98 96 95 95 95 95 96 97 97 97 98 97 98 97 96 97 96 97 96 95 98 97 88 88 88 89 87 91 92 93 96 98
94 95 90 89 85 81 79 85 91 91 89 96 88 87 92 88 90 92 91 94 97 98 99 99 98 98 97 96 95 98 97 96 96 94 84 74 75 74 74 82 81 84 92
93 88 88 85 83 75 85 82 85 84 85 94 95 98 96 88 88 93 94 92 87 88 94 96 97 97 95 97 97 98 97 96 93 95 87 81 85 83 86 85 89 88 89
91 90 89 86 88 88 84 87 85 92 94 97 96 93 79 77 82 84 83 85 88 91 86 92 92 93 94 96 95 93 93 95 95 96 94 90 96 93 92 83 90 88 87
93 94 93 89 87 86 84 86 84 93 96 96 95 91 88 89 87 81 81 86 90 92 93 91 94 94 95 96 88 87 90 92 96 96 96 95 97 94 93 93 90 87 88
98 97 92 87 82 83 83 81 89 94 97 98 97 95 92 92 85 83 86 89 91 94 79 91 93 90 87 89 91 94 96 96 96 97 96 96 96 94 95 96 92 88 88
97 97 96 88 82 82 84 79 86 98 98 99 98 96 85 88 84 85 90 94 95 95 92 90 91 92 94 94 91 91 97 97 98 97 96 91 96 97 96 96 96 93 87